Regional Weather Roundup
Issued by NWS Jackson, KY

Home | Current Version | Previous Version | Text Only | Print | Product List | Glossary On
Versions: 1 2 3 4 5 6 7 8 9 10 11 12 13 14 15 16 17 18 19 20 21 22 23 24 25 26 27 28 29 30 31 32 33 34 35 36 37 38 39 40 41 42 43 44 45 46 47 48 49 50
000
ASUS43 KJKL 031110
RWRJKL

EAST KENTUCKY HOURLY WEATHER ROUNDUP
NATIONAL WEATHER SERVICE JACKSON KY
700 AM EDT MON AUG 03 2015

NOTE: "FAIR" INDICATES FEW OR NO CLOUDS BELOW 12,000 FEET WITH
NO SIGNIFICANT WEATHER AND/OR OBSTRUCTIONS TO VISIBILITY.

* THESE REPORTS ARE NOT UNDER NWS QUALITY CONTROL AND MAY NOT
  REPORT WEATHER SUCH AS PRECIPITATION AND FOG.

KYZ079-080-083-085-087-088-110-112-115-119-120-031200
...EASTERN KENTUCKY...

CITY           SKY/WX    TMP DP  RH WIND       PRES   REMARKS
JACKSON        CLEAR     62  60  93 CALM      29.95R
LONDON         CLEAR     62  57  83 CALM      29.96R
SOMERSET*      FOG       59  59 100 CALM      29.96S VSB<1/4
MONTICELLO*    CLEAR     60  60 100 CALM      29.98R
MIDDLESBORO*   CLOUDY    59  59 100 CALM      29.99R FOG
HAZARD APT*    SUNNY     63  63 100 CALM      29.95R
BLACK MTN*       N/A     64  54  68 S5          N/A
PIKEVILLE APT* CLEAR     63  61  94 S5        29.96R
BIG SANDY*     SUNNY     63  62  96 SW3       29.94R
MOREHEAD APT*  MOSUNNY   63  61  94 NE8       29.97R
$$

KYZ035-036-041-042-044-050-067-078-099-031200
...CENTRAL KENTUCKY...

CITY           SKY/WX    TMP DP  RH WIND       PRES   REMARKS
MT STERLING*   CLEAR     63  63 100 SW3       29.94R
FLEMING/MASON* DRIZZLE   66  59  77 NE9       30.01R
DANVILLE*      CLEAR     63  61  94 SW6       29.94R
RICHMOND*      CLEAR     66  59  77 SW5       29.92S
LEXINGTON      CLEAR     67  61  81 SW6       29.92R
FRANKFORT      CLEAR     65  60  84 SW5       29.90R
$$

KYZ091>093-OHZ055-061-077-WVZ005-015-034-035-042-031200
...SOUTHERN OHIO/WEST VIRGINIA...

CITY           SKY/WX    TMP DP  RH WIND       PRES   REMARKS
COVINGTON      TSTM      63  63 100 E13       29.97F FOG
COLUMBUS       LGT RAIN  63  62  97 S9        29.89F
DAYTON         LGT RAIN  64  62  93 S20G29    29.86F
WILMINGTON     TSTM      62  59  90 SE3       30.00R FOG
HUNTINGTON     PTCLDY    63  62  97 VRB3      29.96R
CHARLESTON     PTCLDY    62  60  93 CALM      29.94R
PINEVILLE*     CLEAR     58  58 100 MISG      30.03R
BECKLEY        CLEAR     61  54  77 CALM      30.00R
BLUEFIELD      PTCLDY    67  54  63 W5        30.02R
$$

VAZ002-007-008-TNZ017-027-036-066-071-031200
...SOUTHWEST VIRGINIA/EAST TENNESSEE...

CITY           SKY/WX    TMP DP  RH WIND       PRES   REMARKS
WISE*          CLEAR     63  52  67 CALM      30.03R
ABINGDON*      CLEAR     64  57  80 CALM      29.99R
BRISTOL        PTCLDY    61  59  93 CALM      29.97R
KNOXVILLE      PTCLDY    68  64  87 CALM      29.94R
OAK RIDGE      PTCLDY    63  61  93 CALM      29.97R
CROSSVILLE     CLEAR     59  56  89 CALM      30.00R
NASHVILLE      PTCLDY    66  64  93 CALM      29.94R
$$

...KEY TO REMARKS...
VSB - VISIBILITY IN MILES
WCI - WIND CHILL INDEX
HX  - HEAT INDEX

$$


USA.gov is the U.S. government's official web portal to all federal, state and local government web resources and services.